Ellensburg, WA

2:37 PM PDT on June 23, 2017 (GMT -0700)
Bowers

Weather History for KELN - January, 2014

Change the Weather History Date:

Sunday, January 12, 2014

  Actual Average (KYKM) Record (KYKM)
Temperature  
Mean Temperature 42 °F -  
Max Temperature 48 °F 34 °F 59 °F (2014)
Min Temperature 36 °F 19 °F -6 °F (1949)
Degree Days  
Heating Degree Days 23    
Moisture  
Dew Point 34 °F    
Average Humidity 72    
Maximum Humidity 79    
Minimum Humidity 66    
Precipitation  
Precipitation 0.00 in - - ()
Sea Level Pressure  
Sea Level Pressure 29.98 in    
Wind  
Wind Speed 16 mph (WNW)    
Max Wind Speed 24 mph    
Max Gust Speed 34 mph    
Visibility 10 miles    
Events      
Averages and records for this station are not official NWS values.
T = Trace of Precipitation, MM = Missing Value Source: NWS Daily Summary

Daily Weather History Graph

Daily Weather History Graph

Search for Another Location

Airport or City:

Trip Planner

Search our weather history database for the weather conditions in past years. The results will help you decide how hot, cold, wet, or windy it might be!

Date:

Astronomy

Jan. 12, 2014 Rise Set
Actual Time 7:45 AM PST 4:36 PM PST
Civil Twilight 7:10 AM PST 5:10 PM PST
Nautical Twilight 6:32 AM PST 5:48 PM PST
Astronomical Twilight 5:56 AM PST 6:25 PM PST
Moon 2:09 PM PST (1/12) 4:46 AM PST (1/12)
Length of Visible Light 10h 00m
Length of Day
8h 51m
Waxing Gibbous, 90% of the Moon is Illuminated
Jan 12
Waxing Gibbous
Jan 15
Full
Jan 23
Last Quarter
Jan 30
New
Feb 6
First Quarter

Hourly Weather History & Observations

Time (PST) Temp. Windchill Dew Point Humidity Pressure Visibility Wind Dir Wind Speed Gust Speed Precip Events Conditions
12:53 AM 39.0 °F 28.8 °F 32.0 °F 76% 29.67 in 10.0 mi NW 21.9 mph 29.9 mph N/A   Clear
1:53 AM 37.9 °F 28.9 °F 30.9 °F 76% 29.75 in 10.0 mi WNW 16.1 mph - N/A   Clear
2:53 AM 37.9 °F 28.9 °F 30.9 °F 76% 29.84 in 10.0 mi WNW 16.1 mph - N/A   Scattered Clouds
3:53 AM 37.0 °F 29.8 °F 30.0 °F 76% 29.88 in 10.0 mi NW 10.4 mph - N/A   Scattered Clouds
4:53 AM 37.0 °F 28.1 °F 30.0 °F 76% 29.89 in 10.0 mi NNW 15.0 mph - N/A   Clear
5:53 AM 37.0 °F 26.4 °F 28.9 °F 73% 29.94 in 10.0 mi NW 20.7 mph - N/A   Clear
6:53 AM 36.0 °F 25.3 °F 30.0 °F 79% 29.96 in 10.0 mi NW 19.6 mph - N/A   Clear
7:53 AM 36.0 °F 28.0 °F 30.0 °F 79% 29.99 in 10.0 mi NW 11.5 mph - N/A   Clear
8:53 AM 37.9 °F 28.5 °F 30.9 °F 76% 29.98 in 10.0 mi WNW 17.3 mph - N/A   Partly Cloudy
9:46 AM 37.9 °F 30.5 °F 32.0 °F 79% 29.98 in 10.0 mi South 11.5 mph - N/A   Mostly Cloudy
9:53 AM 39.0 °F 34.0 °F 32.0 °F 76% 30.02 in 10.0 mi SE 6.9 mph - N/A   Mostly Cloudy
10:13 AM 39.9 °F 35.8 °F 33.1 °F 77% 29.99 in 10.0 mi SE 5.8 mph - N/A   Overcast
10:53 AM 41.0 °F 37.1 °F 33.1 °F 73% 30.03 in 10.0 mi South 5.8 mph - N/A   Overcast
11:53 AM 45.0 °F 40.1 °F 35.1 °F 68% 30.01 in 10.0 mi WNW 9.2 mph - N/A   Overcast
12:53 PM 46.0 °F 39.6 °F 37.0 °F 71% 29.99 in 10.0 mi WNW 15.0 mph - N/A   Overcast
1:53 PM 48.9 °F - 37.9 °F 66% 29.98 in 10.0 mi WNW 18.4 mph - N/A   Clear
2:53 PM 48.0 °F - 37.0 °F 66% 29.98 in 10.0 mi NW 24.2 mph 32.2 mph N/A   Clear
3:53 PM 46.9 °F - 36.0 °F 66% 30.01 in 10.0 mi NW 19.6 mph 27.6 mph N/A   Clear
4:53 PM 45.0 °F 41.8 °F 36.0 °F 71% 30.02 in 10.0 mi Variable 5.8 mph - N/A   Partly Cloudy
5:53 PM 46.9 °F - 37.0 °F 68% 30.04 in 10.0 mi NW 18.4 mph 28.8 mph N/A   Scattered Clouds
6:53 PM 45.0 °F 41.2 °F 36.0 °F 71% 30.03 in 10.0 mi West 6.9 mph - N/A   Mostly Cloudy
7:53 PM 48.0 °F - 37.0 °F 66% 30.06 in 10.0 mi WSW 6.9 mph - N/A   Partly Cloudy
8:53 PM 46.9 °F - 36.0 °F 66% 30.08 in 10.0 mi NW 18.4 mph 26.5 mph N/A   Clear
9:53 PM 46.9 °F - 36.0 °F 66% 30.11 in 10.0 mi NW 17.3 mph 28.8 mph N/A   Clear
10:53 PM 46.9 °F - 36.0 °F 66% 30.13 in 10.0 mi NW 21.9 mph 34.5 mph N/A   Clear
11:53 PM 46.9 °F - 37.0 °F 68% 30.14 in 10.0 mi NW 19.6 mph 29.9 mph N/A   Clear